Location: Newark
(44.6028°N, 124.0883°W)
Time: 05:05:06
(UTC+00:00)

Vanguard 1 Rocket - All Passes

Search period start: 23 October 2019 00:00
Search period end: 02 November 2019 00:00
Orbit: 650 x 4226 km, 34.3° (Epoch: 20 October)

Date Brightness Start Highest point End Pass type
(mag) Time Alt. Az. Time Alt. Az. Time Alt. Az.
23 Oct - 00:52:48 10° W 01:12:35 32° SW 01:31:46 10° S daylight
23 Oct - 16:22:49 10° SSW 16:31:52 30° SE 16:46:41 10° E daylight
23 Oct - 18:44:51 10° WSW 18:58:09 57° SSE 19:21:17 10° E daylight
23 Oct - 21:10:11 10° W 21:28:10 61° S 21:53:37 10° ESE daylight
23 Oct - 23:38:24 10° W 23:58:52 42° SSW 00:21:05 10° SSE daylight
24 Oct - 02:14:08 10° W 02:26:54 16° SW 02:39:03 10° SSW visible
24 Oct - 15:15:09 10° SSE 15:21:08 17° SE 15:29:21 10° E daylight
24 Oct - 17:34:30 10° SW 17:45:30 47° SSE 18:05:20 10° E daylight
24 Oct - 19:58:33 10° WSW 20:13:57 62° S 20:38:52 10° ESE daylight
24 Oct - 22:25:14 10° W 22:44:40 51° SSW 23:08:54 10° SE daylight
25 Oct - 00:56:12 10° W 01:14:05 27° SW 01:32:02 10° S daylight
25 Oct - 16:24:54 10° SSW 16:33:49 34° SE 16:49:11 10° E daylight
25 Oct - 18:47:30 10° WSW 19:00:25 59° S 19:23:23 10° E daylight
25 Oct - 21:12:57 10° W 21:30:19 57° SSW 21:55:24 10° SE daylight
25 Oct - 23:41:23 10° W 00:00:35 37° SW 00:22:00 10° SSE daylight
26 Oct - 02:21:52 10° WSW 02:28:18 11° SW 02:34:39 10° SW visible
26 Oct - 15:16:28 10° S 15:22:59 21° SE 15:32:42 10° E daylight
26 Oct - 17:37:03 10° SW 17:47:45 51° SSE 18:07:30 10° E daylight
26 Oct - 20:01:19 10° W 20:16:16 60° S 20:40:48 10° ESE daylight
26 Oct - 22:28:05 10° W 22:46:37 46° SSW 23:10:13 10° SE daylight
27 Oct - 01:00:13 10° W 01:15:37 21° SW 01:31:28 10° S daylight
27 Oct - 16:27:14 10° SSW 16:35:58 39° SSE 16:51:34 10° E daylight
27 Oct - 18:50:16 10° WSW 19:02:47 59° S 19:25:24 10° ESE daylight
27 Oct - 21:15:46 10° W 21:32:30 53° SSW 21:56:59 10° SE daylight
27 Oct - 23:44:38 10° W 00:02:19 31° SW 00:22:26 10° SSE daylight
28 Oct - 15:18:18 10° S 15:25:00 25° SE 15:35:37 10° E daylight
28 Oct - 17:39:44 10° WSW 17:50:06 53° SSE 18:09:38 10° E daylight
28 Oct - 20:04:10 10° W 20:18:36 57° S 20:42:36 10° ESE daylight
28 Oct - 22:31:05 10° W 22:48:34 40° SSW 23:11:10 10° SSE daylight
29 Oct - 01:05:26 10° W 01:17:12 16° SW 01:29:29 10° SSW daylight
29 Oct - 14:11:34 10° SSE 14:14:40 12° SE 14:18:23 10° ESE visible
29 Oct - 16:29:45 10° SW 16:38:14 43° SSE 16:53:53 10° E daylight
29 Oct - 18:53:06 10° WSW 19:05:13 58° S 19:27:21 10° ESE daylight
29 Oct - 21:18:41 10° W 21:34:39 48° SSW 21:58:19 10° SE daylight
29 Oct - 23:48:18 10° W 00:04:04 25° SW 00:22:13 10° S daylight
30 Oct - 15:20:26 10° SSW 15:27:09 29° SE 15:38:19 10° E daylight
30 Oct - 17:42:31 10° WSW 17:52:33 55° S 18:11:43 10° E daylight
30 Oct - 20:07:03 10° W 20:20:57 53° SSW 20:44:13 10° SE daylight
30 Oct - 22:34:16 10° W 22:50:32 34° SW 23:11:42 10° SSE daylight
31 Oct - 01:14:51 10° WSW 01:18:54 11° SW 01:23:02 10° SW daylight
31 Oct - 14:12:28 10° SSE 14:16:43 16° SE 14:22:25 10° E visible
31 Oct - 16:32:24 10° SW 16:40:38 46° SSE 16:56:09 10° E daylight
31 Oct - 18:55:59 10° WSW 19:07:42 56° S 19:29:12 10° ESE daylight
31 Oct - 21:21:42 10° W 21:36:52 42° SSW 21:59:20 10° SE daylight
31 Oct - 23:52:43 10° W 00:05:54 19° SW 00:21:01 10° S daylight
01 Nov - 15:22:50 10° SSW 15:29:27 33° SSE 15:40:52 10° E daylight
01 Nov - 17:45:22 10° WSW 17:55:05 55° S 18:13:45 10° ESE daylight
01 Nov - 20:10:01 10° W 20:23:20 48° SSW 20:45:36 10° SE daylight
01 Nov - 22:37:47 10° W 22:52:33 28° SW 23:11:42 10° S daylight
